CO-58
1 28895U 05043F 09281.23000602 .00000039 00000-0 17765-4 0 4141
2 28895 098.0413 168.5777 0017893 358.0110 002.1000 14.59800847210222
FALCON
1 30776U 07006E 09281.80143987 .00000455 00000-0 35907-4 0 6748
2 30776 035.4326 130.0566 0000951 245.7933 114.2685 15.03323252142209
MAST
1 31126U 07012K 09280.65627730 .00000033 00000-0 18251-4 0 07049
2 31126 097.9763 330.2374 0093702 291.1492 067.9729 14.53520116131370
CAPE1
1 31130U 07012P 09281.70174450 -.00000086 00000-0 -87080-5 0 7134
2 31130 097.9782 329.1653 0102090 294.2390 064.8171 14.52091410131168
COMPASS
1 32787U 08021E 09280.20827668 .00000319 00000-0 47182-4 0 04912
2 32787 097.9312 343.0175 0016420 032.2781 327.9427 14.81665848078032
AAUSAT2
1 32788U 08021F 09280.63946002 .00000432 00000-0 61327-4 0 04838
2 32788 097.9321 343.5235 0016287 031.9920 328.2263 14.81792975078109
DO-64
1 32789U 08021G 09280.72853768 .00000191 00000-0 30881-4 0 04951
2 32789 097.9361 343.8480 0016267 029.3089 330.9027 14.81808158078114
CO-66
1 32791U 08021J 09281.75020518 .00000377 00000-0 54830-4 0 4762
2 32791 097.9327 344.5763 0016795 025.2639 334.9387 14.81487907 78223
RS-30
1 32953U 08025A 09280.71417010 .00000010 00000-0 00000-0 0 04252
2 32953 082.5051 186.6489 0018502 297.4731 062.4460 12.43003073062379
TACSAT-3
1 35001U 09028A 09279.49558526 .00002903 00000-0 77924-4 0 01235
2 35001 040.4572 294.8373 0025205 271.0566 088.7360 15.39272655021505
PHARMSAT
1 35002U 09028B 09280.39909510 .00002463 00000-0 65308-4 0 1100
2 35002 040.4707 288.6142 0028074 281.6651 078.1014 15.40022592 21649
HAWKSAT1
1 35003U 09028C 09280.41205313 .00004744 00000-0 11700-3 0 01193
2 35003 040.4635 287.7151 0028403 285.3324 074.4353 15.40840447021668
CP6
1 35004U 09028D 09280.41004387 .00005338 00000-0 13060-3 0 01148
2 35004 040.4637 287.7061 0027853 285.3055 074.4680 15.40927094021656
AEROCUB3
1 35005U 09028E 09280.94589624 .00004878 00000-0 12072-3 0 01228
2 35005 040.4764 284.8862 0027744 286.6250 073.1519 15.40712676021739
DRAGNSAT
1 35690U 09038B 09281.71213203 .00030857 00000-0 13918-3 0 687
2 35690 051.6419 079.6538 0003235 343.3974 016.6919 15.83740608 11113
POLLUX
1 35693U 09038E 09281.73835499 .00028510 00000-0 13356-3 0 699
2 35693 051.6378 079.8398 0003089 278.3421 081.6987 15.82980838 11080
CASTOR
1 35694U 09038F 09281.76994682 .00014667 00000-0 75397-4 0 662
2 35694 051.6392 080.0666 0003151 285.4687 074.5880 15.81502465 11080
METEOR-M
1 35865U 09049A 09281.76650640 .00000176 00000-0 10000-3 0 194
2 35865 098.7975 331.8829 0002899 027.2485 332.8774 14.21827137 2994
STERKH-2
1 35866U 09049B 09280.63398785 .00000178 00000-0 10000-3 0 00225
2 35866 098.7987 330.7740 0003392 029.6061 330.5271 14.22296401002838
FREGAT-I
1 35867U 09049C 09281.82260829 .00002264 00000-0 10000-3 0 335
2 35867 097.3715 331.5049 0008931 209.1338 150.9240 15.22722183 3215
SUMBDILA
1 35870U 09049F 09281.90645946 .00000429 00000-0 21302-4 0 604
2 35870 097.3706 331.5781 0010696 214.8334 251.3038 15.22803385 3228
